date,time,SUV Intensity [MED/Hr],UV Index,Daily total [MED],Since Last [MED]
12/07/2022,00:10:17,0.001,0.0,0.0,0.0
12/07/2022,00:11:18,0.000,0.0,0.0,0.0
12/07/2022,00:12:17,0.000,0.0,0.0,0.0
12/07/2022,00:13:17,0.000,0.0,0.0,0.0
12/07/2022,00:14:17,0.000,0.0,0.0,0.0
12/07/2022,00:15:17,0.001,0.0,0.0,0.0
12/07/2022,00:16:18,0.000,0.0,0.0,0.0
12/07/2022,00:17:17,0.001,0.0,0.0,0.0
12/07/2022,00:18:17,0.000,0.0,0.0,0.0
12/07/2022,00:19:17,0.000,0.0,0.0,0.0
12/07/2022,00:20:18,0.000,0.0,0.0,0.0
12/07/2022,00:21:17,0.000,0.0,0.0,0.0
12/07/2022,00:22:17,-0.000,0.0,0.0,0.0
12/07/2022,00:23:17,0.001,0.0,0.0,0.0
12/07/2022,00:24:18,0.000,0.0,0.0,0.0
12/07/2022,00:25:17,0.001,0.0,0.0,0.0
12/07/2022,00:26:17,-0.001,0.0,0.0,0.0
12/07/2022,00:27:26,0.000,0.0,0.0,0.0
12/07/2022,00:28:18,-0.001,0.0,0.0,0.0
12/07/2022,00:29:18,-0.000,0.0,0.0,0.0
12/07/2022,00:30:17,0.000,0.0,0.0,0.0
12/07/2022,00:31:17,-0.001,0.0,0.0,0.0
12/07/2022,00:32:26,0.000,0.0,0.0,0.0
12/07/2022,00:33:18,0.000,0.0,0.0,0.0
12/07/2022,00:34:17,-0.001,0.0,0.0,0.0
12/07/2022,00:35:26,0.000,0.0,0.0,0.0
12/07/2022,00:36:17,0.000,0.0,0.0,0.0
12/07/2022,00:37:18,0.000,0.0,0.0,0.0
12/07/2022,00:38:28,0.000,0.0,0.0,0.0
12/07/2022,00:39:16,0.000,0.0,0.0,0.0
12/07/2022,00:40:17,0.001,0.0,0.0,0.0
12/07/2022,00:41:17,0.000,0.0,0.0,0.0
12/07/2022,00:42:18,0.000,0.0,0.0,0.0
12/07/2022,00:43:26,0.000,0.0,0.0,0.0
12/07/2022,00:45:19,0.000,0.0,0.0,0.0
12/07/2022,00:46:17,-0.000,0.0,0.0,0.0
12/07/2022,00:47:17,0.000,0.0,0.0,0.0
12/07/2022,00:48:34,0.000,0.0,0.0,0.0
12/07/2022,00:50:18,0.001,0.0,0.0,0.0
12/07/2022,00:51:34,0.000,0.0,0.0,0.0
12/07/2022,00:53:18,-0.001,0.0,0.0,0.0
12/07/2022,00:54:18,0.000,0.0,0.0,0.0
12/07/2022,00:55:17,0.000,0.0,0.0,0.0
12/07/2022,00:56:18,0.001,0.0,0.0,0.0
12/07/2022,00:57:17,0.000,0.0,0.0,0.0
12/07/2022,00:58:18,-0.001,0.0,0.0,0.0
12/07/2022,00:59:17,-0.000,0.0,0.0,0.0
12/07/2022,01:00:18,0.000,0.0,0.0,0.0
12/07/2022,01:01:18,-0.001,0.0,0.0,0.0
12/07/2022,01:02:17,0.000,0.0,0.0,0.0
12/07/2022,01:03:26,-0.000,0.0,0.0,0.0
12/07/2022,01:04:17,-0.001,0.0,0.0,0.0
12/07/2022,01:05:17,0.000,0.0,0.0,0.0
12/07/2022,01:06:17,0.001,0.0,0.0,0.0
12/07/2022,01:07:17,0.000,0.0,0.0,0.0
12/07/2022,01:08:18,0.001,0.0,0.0,0.0
12/07/2022,01:09:17,0.001,0.0,0.0,0.0
12/07/2022,01:10:18,0.001,0.0,0.0,0.0
12/07/2022,01:11:17,0.001,0.0,0.0,0.0
12/07/2022,01:12:17,0.000,0.0,0.0,0.0
12/07/2022,01:13:18,0.001,0.0,0.0,0.0
12/07/2022,01:14:17,0.001,0.0,0.0,0.0
12/07/2022,01:15:18,0.000,0.0,0.0,0.0
12/07/2022,01:16:17,-0.000,0.0,0.0,0.0
12/07/2022,01:17:25,0.001,0.0,0.0,0.0
12/07/2022,01:18:13,-0.001,0.0,0.0,0.0
12/07/2022,01:19:18,0.000,0.0,0.0,0.0
12/07/2022,01:20:18,0.001,0.0,0.0,0.0
12/07/2022,01:21:17,0.001,0.0,0.0,0.0
12/07/2022,01:22:26,-0.000,0.0,0.0,0.0
12/07/2022,01:23:17,-0.001,0.0,0.0,0.0
12/07/2022,01:24:17,-0.000,0.0,0.0,0.0
12/07/2022,01:25:18,0.001,0.0,0.0,0.0
12/07/2022,01:26:18,-0.000,0.0,0.0,0.0
12/07/2022,01:27:17,0.000,0.0,0.0,0.0
12/07/2022,01:28:17,-0.001,0.0,0.0,0.0
12/07/2022,01:29:18,-0.000,0.0,0.0,0.0
12/07/2022,01:30:26,0.001,0.0,0.0,0.0
12/07/2022,01:32:18,0.002,0.0,0.0,0.0
12/07/2022,01:33:26,0.000,0.0,0.0,0.0
12/07/2022,01:34:17,0.000,0.0,0.0,0.0
12/07/2022,01:35:17,0.000,0.0,0.0,0.0
12/07/2022,01:36:17,-0.000,0.0,0.0,0.0
12/07/2022,01:37:18,0.000,0.0,0.0,0.0
12/07/2022,01:38:18,0.000,0.0,0.0,0.0
12/07/2022,01:39:18,0.001,0.0,0.0,0.0
12/07/2022,01:40:18,0.001,0.0,0.0,0.0
12/07/2022,01:41:17,0.000,0.0,0.0,0.0
12/07/2022,01:42:17,0.001,0.0,0.0,0.0
12/07/2022,01:43:18,0.001,0.0,0.0,0.0
12/07/2022,01:44:17,0.001,0.0,0.0,0.0
12/07/2022,01:45:18,0.000,0.0,0.0,0.0
12/07/2022,01:46:18,0.002,0.0,0.0,0.0
12/07/2022,01:47:18,0.001,0.0,0.0,0.0
12/07/2022,01:48:18,0.001,0.0,0.0,0.0
12/07/2022,01:49:17,0.001,0.0,0.0,0.0
12/07/2022,01:50:17,0.001,0.0,0.0,0.0
12/07/2022,01:51:18,0.001,0.0,0.0,0.0
12/07/2022,01:52:18,0.000,0.0,0.0,0.0
12/07/2022,01:53:26,0.001,0.0,0.0,0.0
12/07/2022,01:54:18,-0.000,0.0,0.0,0.0
12/07/2022,01:55:17,0.001,0.0,0.0,0.0
12/07/2022,01:56:18,0.001,0.0,0.0,0.0
12/07/2022,01:57:17,0.001,0.0,0.0,0.0
12/07/2022,01:58:26,0.000,0.0,0.0,0.0
12/07/2022,01:59:17,0.001,0.0,0.0,0.0
12/07/2022,02:00:17,0.000,0.0,0.0,0.0
12/07/2022,02:01:26,0.000,0.0,0.0,0.0
12/07/2022,02:03:18,0.001,0.0,0.0,0.0
12/07/2022,02:04:25,0.000,0.0,0.0,0.0
12/07/2022,02:05:18,0.001,0.0,0.0,0.0
12/07/2022,02:06:18,0.001,0.0,0.0,0.0
12/07/2022,02:07:18,0.001,0.0,0.0,0.0
12/07/2022,02:08:17,0.001,0.0,0.0,0.0
12/07/2022,02:09:17,-0.000,0.0,0.0,0.0
12/07/2022,02:10:17,0.001,0.0,0.0,0.0
12/07/2022,02:11:18,-0.000,0.0,0.0,0.0
12/07/2022,02:12:19,-0.000,0.0,0.0,0.0
12/07/2022,02:13:18,0.002,0.0,0.0,0.0
12/07/2022,02:14:18,-0.000,0.0,0.0,0.0
12/07/2022,02:15:17,0.000,0.0,0.0,0.0
12/07/2022,02:16:19,0.002,0.0,0.0,0.0
12/07/2022,02:17:18,0.001,0.0,0.0,0.0
12/07/2022,02:18:17,0.001,0.0,0.0,0.0
12/07/2022,02:19:17,0.000,0.0,0.0,0.0
12/07/2022,02:20:18,0.001,0.0,0.0,0.0
12/07/2022,02:21:18,0.001,0.0,0.0,0.0
12/07/2022,02:22:17,0.001,0.0,0.0,0.0
12/07/2022,02:23:18,0.000,0.0,0.0,0.0
12/07/2022,02:24:19,0.002,0.0,0.0,0.0
12/07/2022,02:25:17,0.001,0.0,0.0,0.0
12/07/2022,02:26:18,0.001,0.0,0.0,0.0
12/07/2022,02:27:26,0.001,0.0,0.0,0.0
12/07/2022,02:28:17,0.001,0.0,0.0,0.0
12/07/2022,02:29:17,0.001,0.0,0.0,0.0
12/07/2022,02:30:17,0.001,0.0,0.0,0.0
12/07/2022,02:31:18,0.002,0.0,0.0,0.0
12/07/2022,02:32:17,0.001,0.0,0.0,0.0
12/07/2022,02:33:18,0.001,0.0,0.0,0.0
12/07/2022,02:34:17,0.000,0.0,0.0,0.0
12/07/2022,02:35:18,0.000,0.0,0.0,0.0
12/07/2022,02:36:17,-0.000,0.0,0.0,0.0
12/07/2022,02:37:17,0.001,0.0,0.0,0.0
12/07/2022,02:38:17,0.001,0.0,0.0,0.0
12/07/2022,02:39:17,0.002,0.0,0.0,0.0
12/07/2022,02:40:18,0.001,0.0,0.0,0.0
12/07/2022,02:41:30,0.000,0.0,0.0,0.0
12/07/2022,02:43:18,0.001,0.0,0.0,0.0
12/07/2022,02:44:18,0.001,0.0,0.0,0.0
12/07/2022,02:45:17,0.001,0.0,0.0,0.0
12/07/2022,02:46:26,0.001,0.0,0.0,0.0
12/07/2022,02:47:18,0.001,0.0,0.0,0.0
12/07/2022,02:48:17,-0.000,0.0,0.0,0.0
12/07/2022,02:49:18,0.001,0.0,0.0,0.0
12/07/2022,02:50:17,0.001,0.0,0.0,0.0
12/07/2022,02:51:18,0.001,0.0,0.0,0.0
12/07/2022,02:52:17,0.001,0.0,0.0,0.0
12/07/2022,02:53:18,0.001,0.0,0.0,0.0
12/07/2022,02:54:26,0.001,0.0,0.0,0.0
12/07/2022,02:55:17,0.001,0.0,0.0,0.0
12/07/2022,02:56:18,0.001,0.0,0.0,0.0
12/07/2022,02:57:18,0.000,0.0,0.0,0.0
12/07/2022,02:58:20,0.001,0.0,0.0,0.0
12/07/2022,02:59:18,0.002,0.0,0.0,0.0
12/07/2022,03:00:18,0.001,0.0,0.0,0.0
12/07/2022,03:01:18,0.000,0.0,0.0,0.0
12/07/2022,03:02:17,0.001,0.0,0.0,0.0
12/07/2022,03:03:17,0.001,0.0,0.0,0.0
12/07/2022,03:04:18,0.001,0.0,0.0,0.0
12/07/2022,03:05:17,-0.000,0.0,0.0,0.0
12/07/2022,03:06:18,0.001,0.0,0.0,0.0
12/07/2022,03:07:18,0.000,0.0,0.0,0.0
12/07/2022,03:08:17,0.001,0.0,0.0,0.0
12/07/2022,03:09:17,0.002,0.0,0.0,0.0
12/07/2022,03:10:18,0.001,0.0,0.0,0.0
12/07/2022,03:11:17,0.001,0.0,0.0,0.0
12/07/2022,03:12:19,0.000,0.0,0.0,0.0
12/07/2022,03:13:18,0.001,0.0,0.0,0.0
12/07/2022,03:14:26,0.001,0.0,0.0,0.0
12/07/2022,03:15:18,0.001,0.0,0.0,0.0
12/07/2022,03:16:18,0.002,0.0,0.0,0.0
12/07/2022,03:17:26,-0.000,0.0,0.0,0.0
12/07/2022,03:18:17,0.001,0.0,0.0,0.0
12/07/2022,03:19:18,-0.000,0.0,0.0,0.0
12/07/2022,03:20:18,0.001,0.0,0.0,0.0
12/07/2022,03:21:26,0.001,0.0,0.0,0.0
12/07/2022,03:22:18,0.001,0.0,0.0,0.0
12/07/2022,03:23:18,0.001,0.0,0.0,0.0
12/07/2022,03:24:18,0.001,0.0,0.0,0.0
12/07/2022,03:25:17,0.001,0.0,0.0,0.0
12/07/2022,03:26:17,0.000,0.0,0.0,0.0
12/07/2022,03:27:18,0.001,0.0,0.0,0.0
12/07/2022,03:28:18,0.001,0.0,0.0,0.0
12/07/2022,03:29:17,0.001,0.0,0.0,0.0
12/07/2022,03:30:18,0.001,0.0,0.0,0.0
12/07/2022,03:31:18,0.001,0.0,0.0,0.0
12/07/2022,03:32:17,0.001,0.0,0.0,0.0
12/07/2022,03:33:18,-0.000,0.0,0.0,0.0
12/07/2022,03:34:18,0.001,0.0,0.0,0.0
12/07/2022,03:35:20,-0.000,0.0,0.0,0.0
12/07/2022,03:36:18,0.001,0.0,0.0,0.0
12/07/2022,03:37:17,0.001,0.0,0.0,0.0
12/07/2022,03:38:18,0.001,0.0,0.0,0.0
12/07/2022,03:39:18,0.001,0.0,0.0,0.0
12/07/2022,03:40:18,0.001,0.0,0.0,0.0
12/07/2022,03:41:17,0.002,0.0,0.0,0.0
12/07/2022,03:42:17,0.001,0.0,0.0,0.0
12/07/2022,03:43:26,0.002,0.0,0.0,0.0
12/07/2022,03:44:18,0.002,0.0,0.0,0.0
12/07/2022,03:45:18,0.001,0.0,0.0,0.0
12/07/2022,03:46:17,0.000,0.0,0.0,0.0
12/07/2022,03:47:17,0.001,0.0,0.0,0.0
12/07/2022,03:48:19,0.001,0.0,0.0,0.0
12/07/2022,03:49:17,0.001,0.0,0.0,0.0
12/07/2022,03:50:17,0.001,0.0,0.0,0.0
12/07/2022,03:51:18,0.001,0.0,0.0,0.0
12/07/2022,03:52:17,0.001,0.0,0.0,0.0
12/07/2022,03:53:18,0.001,0.0,0.0,0.0
12/07/2022,03:54:26,0.001,0.0,0.0,0.0
12/07/2022,03:55:17,0.002,0.0,0.0,0.0
12/07/2022,03:56:18,0.001,0.0,0.0,0.0
12/07/2022,03:57:18,0.002,0.0,0.0,0.0
12/07/2022,03:58:17,0.002,0.0,0.0,0.0
12/07/2022,03:59:18,0.002,0.0,0.0,0.0
12/07/2022,04:00:17,0.002,0.0,0.0,0.0
12/07/2022,04:01:17,0.002,0.0,0.0,0.0
12/07/2022,04:02:18,0.002,0.0,0.0,0.0
12/07/2022,04:03:18,0.002,0.0,0.0,0.0
12/07/2022,04:04:18,0.002,0.0,0.0,0.0
12/07/2022,04:05:18,0.002,0.0,0.0,0.0
12/07/2022,04:06:18,0.003,0.0,0.0,0.0
12/07/2022,04:07:18,0.002,0.0,0.0,0.0
12/07/2022,04:08:17,0.003,0.0,0.0,0.0
12/07/2022,04:12:20,0.003,0.0,0.0,0.0
12/07/2022,04:13:18,0.003,0.0,0.0,0.0
12/07/2022,04:14:18,0.004,0.0,0.0,0.0
12/07/2022,04:15:18,0.003,0.0,0.0,0.0
12/07/2022,04:16:18,0.005,0.0,0.0,0.0
12/07/2022,04:17:26,0.005,0.0,0.0,0.0
12/07/2022,04:18:17,0.004,0.0,0.0,0.0
12/07/2022,04:19:18,0.004,0.0,0.0,0.0
12/07/2022,04:20:26,0.005,0.0,0.0,0.0
12/07/2022,04:21:17,0.005,0.0,0.0,0.0
12/07/2022,04:22:17,0.005,0.0,0.0,0.0
12/07/2022,04:23:18,0.005,0.0,0.0,0.0
12/07/2022,04:24:18,0.006,0.0,0.0,0.0
12/07/2022,04:25:18,0.004,0.0,0.0,0.0
12/07/2022,04:26:18,0.006,0.0,0.0,0.0
12/07/2022,04:27:18,0.006,0.0,0.0,0.0
12/07/2022,04:28:18,0.006,0.0,0.0,0.0
12/07/2022,04:29:17,0.006,0.0,0.0,0.0
12/07/2022,04:30:18,0.006,0.0,0.0,0.0
12/07/2022,04:31:18,0.006,0.0,0.0,0.0
12/07/2022,04:32:18,0.007,0.0,0.0,0.0
12/07/2022,04:33:17,0.007,0.0,0.0,0.0
12/07/2022,04:34:17,0.007,0.0,0.001,0.001
12/07/2022,04:35:18,0.007,0.0,0.001,0.0
12/07/2022,04:36:17,0.007,0.0,0.001,0.0
12/07/2022,04:37:18,0.008,0.0,0.001,0.0
12/07/2022,04:38:18,0.008,0.0,0.001,0.0
12/07/2022,04:39:19,0.008,0.0,0.001,0.0
12/07/2022,04:40:26,0.008,0.0,0.001,0.0
12/07/2022,04:41:18,0.010,0.0,0.002,0.001
12/07/2022,04:42:17,0.008,0.0,0.002,0.0
12/07/2022,04:43:18,0.010,0.0,0.002,0.0
12/07/2022,04:44:18,0.009,0.0,0.002,0.0
12/07/2022,04:45:26,0.009,0.0,0.002,0.0
12/07/2022,04:46:18,0.010,0.0,0.002,0.0
12/07/2022,04:47:18,0.011,0.0,0.003,0.001
12/07/2022,04:48:26,0.011,0.0,0.003,0.0
12/07/2022,04:49:18,0.011,0.0,0.003,0.0
12/07/2022,04:50:18,0.011,0.0,0.003,0.0
12/07/2022,04:51:26,0.012,0.0,0.003,0.0
12/07/2022,04:52:18,0.012,0.0,0.003,0.0
12/07/2022,04:53:26,0.013,0.0,0.004,0.001
12/07/2022,04:55:19,0.013,0.0,0.004,0.0
12/07/2022,04:56:18,0.015,0.0,0.004,0.0
12/07/2022,04:57:18,0.015,0.0,0.005,0.001
12/07/2022,04:58:18,0.017,0.0,0.005,0.0
12/07/2022,04:59:17,0.018,0.0,0.005,0.0
12/07/2022,05:00:18,0.018,0.0,0.005,0.0
12/07/2022,05:01:19,0.018,0.0,0.006,0.001
12/07/2022,05:02:17,0.019,0.0,0.006,0.0
12/07/2022,05:03:17,0.020,0.0,0.006,0.0
12/07/2022,05:04:18,0.018,0.0,0.007,0.001
12/07/2022,05:05:18,0.019,0.0,0.007,0.0
12/07/2022,05:06:18,0.022,0.0,0.007,0.0
12/07/2022,05:07:18,0.023,0.0,0.008,0.001
12/07/2022,05:08:26,0.024,0.0,0.008,0.0
12/07/2022,05:09:17,0.025,0.0,0.008,0.0
12/07/2022,05:10:18,0.025,0.0,0.009,0.001
12/07/2022,05:11:27,0.027,0.0,0.009,0.0
12/07/2022,05:12:18,0.027,0.0,0.01,0.001
12/07/2022,05:13:18,0.030,0.0,0.01,0.0
12/07/2022,05:14:18,0.029,0.0,0.011,0.001
12/07/2022,05:15:18,0.030,0.0,0.011,0.0
12/07/2022,05:16:27,0.031,0.0,0.012,0.001
12/07/2022,05:17:18,0.031,0.0,0.012,0.0
12/07/2022,05:18:18,0.032,0.0,0.013,0.001
12/07/2022,05:19:18,0.032,0.0,0.013,0.0
12/07/2022,05:20:18,0.033,0.0,0.014,0.001
12/07/2022,05:21:19,0.034,0.0,0.014,0.0
12/07/2022,05:22:18,0.034,0.0,0.015,0.001
12/07/2022,05:23:18,0.034,0.0,0.016,0.001
12/07/2022,05:24:18,0.034,0.0,0.016,0.0
12/07/2022,05:25:17,0.035,0.0,0.017,0.001
12/07/2022,05:26:18,0.034,0.0,0.017,0.0
12/07/2022,05:27:17,0.035,0.0,0.018,0.001
12/07/2022,05:28:18,0.033,0.0,0.018,0.0
12/07/2022,05:29:18,0.033,0.0,0.019,0.001
12/07/2022,05:30:18,0.033,0.0,0.019,0.0
12/07/2022,05:31:19,0.032,0.0,0.02,0.001
12/07/2022,05:32:18,0.033,0.0,0.021,0.001
12/07/2022,05:33:18,0.034,0.0,0.021,0.0
12/07/2022,05:34:18,0.033,0.0,0.022,0.001
12/07/2022,05:35:18,0.032,0.0,0.022,0.0
12/07/2022,05:36:18,0.032,0.0,0.023,0.001
12/07/2022,05:37:18,0.032,0.0,0.023,0.0
12/07/2022,05:38:18,0.032,0.0,0.024,0.001
12/07/2022,05:39:27,0.034,0.0,0.024,0.0
12/07/2022,05:41:18,0.036,0.0,0.025,0.001
12/07/2022,05:42:18,0.038,0.0,0.026,0.001
12/07/2022,05:43:18,0.040,0.0,0.027,0.001
12/07/2022,05:44:18,0.042,0.0,0.027,0.0
12/07/2022,05:45:26,0.044,0.0,0.028,0.001
12/07/2022,05:46:17,0.045,0.0,0.029,0.001
12/07/2022,05:47:18,0.048,0.0,0.03,0.001
12/07/2022,05:48:18,0.050,0.0,0.03,0.0
12/07/2022,05:49:05,0.052,0.0,0.031,0.001
12/07/2022,05:50:19,0.053,0.0,0.032,0.001
12/07/2022,05:51:18,0.054,0.0,0.033,0.001
12/07/2022,05:52:18,0.055,0.0,0.034,0.001
12/07/2022,05:53:18,0.054,0.0,0.035,0.001
12/07/2022,05:54:18,0.053,0.0,0.036,0.001
12/07/2022,05:55:17,0.053,0.0,0.037,0.001
12/07/2022,05:56:18,0.052,0.0,0.038,0.001
12/07/2022,05:57:18,0.052,0.0,0.038,0.0
12/07/2022,05:58:18,0.051,0.0,0.039,0.001
12/07/2022,05:59:18,0.051,0.0,0.04,0.001
12/07/2022,06:00:18,0.052,0.0,0.041,0.001
12/07/2022,06:01:18,0.052,0.0,0.042,0.001
12/07/2022,06:02:18,0.051,0.0,0.043,0.001
12/07/2022,06:03:18,0.050,0.0,0.044,0.001
12/07/2022,06:04:17,0.051,0.0,0.044,0.0
12/07/2022,06:05:18,0.050,0.0,0.045,0.001
12/07/2022,06:06:18,0.051,0.0,0.046,0.001
12/07/2022,06:07:18,0.051,0.0,0.047,0.001
12/07/2022,06:08:26,0.052,0.0,0.048,0.001
12/07/2022,06:09:17,0.051,0.0,0.049,0.001
12/07/2022,06:10:26,0.053,0.0,0.05,0.001
12/07/2022,06:12:19,0.057,0.0,0.051,0.001
12/07/2022,06:13:26,0.060,0.0,0.052,0.001
12/07/2022,06:14:18,0.061,0.0,0.053,0.001
12/07/2022,06:15:18,0.065,0.0,0.054,0.001
12/07/2022,06:16:26,0.067,0.0,0.056,0.002
12/07/2022,06:17:18,0.070,0.0,0.057,0.001
12/07/2022,06:18:18,0.073,0.0,0.058,0.001
12/07/2022,06:19:26,0.078,0.0,0.059,0.001
12/07/2022,06:20:17,0.081,0.0,0.06,0.001
12/07/2022,06:21:26,0.084,0.0,0.062,0.002
12/07/2022,06:22:18,0.087,0.0,0.063,0.001
12/07/2022,06:23:19,0.091,0.0,0.065,0.002
12/07/2022,06:24:26,0.095,0.0,0.066,0.001
12/07/2022,06:25:18,0.098,0.0,0.068,0.002
12/07/2022,06:26:18,0.101,0.0,0.069,0.001
12/07/2022,06:27:18,0.105,0.0,0.071,0.002
12/07/2022,06:28:18,0.111,0.0,0.073,0.002
12/07/2022,06:29:18,0.115,0.0,0.075,0.002
12/07/2022,06:30:18,0.120,0.0,0.077,0.002
12/07/2022,06:31:18,0.123,0.0,0.079,0.002
12/07/2022,06:32:18,0.128,0.0,0.081,0.002
12/07/2022,06:33:18,0.132,0.0,0.083,0.002
12/07/2022,06:34:18,0.137,0.0,0.085,0.002
12/07/2022,06:35:18,0.141,0.0,0.088,0.003
12/07/2022,06:36:18,0.146,0.0,0.09,0.002
12/07/2022,06:37:35,0.153,0.0,0.093,0.003
12/07/2022,06:39:27,0.159,0.0,0.098,0.005
12/07/2022,06:40:18,0.162,0.0,0.1,0.002
12/07/2022,06:41:18,0.166,0.0,0.103,0.003
12/07/2022,06:42:28,0.171,0.0,0.106,0.003
12/07/2022,06:44:19,0.179,0.0,0.112,0.006
12/07/2022,06:45:19,0.185,0.0,0.115,0.003
12/07/2022,06:46:18,0.189,0.0,0.118,0.003
12/07/2022,06:47:19,0.194,0.0,0.121,0.003
12/07/2022,06:48:18,0.201,0.0,0.124,0.003
12/07/2022,06:49:18,0.207,0.0,0.128,0.004
12/07/2022,06:50:27,0.215,0.0,0.132,0.004
12/07/2022,06:51:18,0.222,1.0,0.135,0.003
12/07/2022,06:52:18,0.231,1.0,0.139,0.004
12/07/2022,06:53:27,0.240,1.0,0.143,0.004
12/07/2022,06:54:18,0.247,1.0,0.147,0.004
12/07/2022,06:55:18,0.255,1.0,0.151,0.004
12/07/2022,06:56:18,0.263,1.0,0.155,0.004
12/07/2022,06:57:19,0.275,1.0,0.16,0.005
12/07/2022,06:58:18,0.282,1.0,0.164,0.004
12/07/2022,06:59:18,0.303,1.0,0.169,0.005
12/07/2022,07:00:18,0.312,1.0,0.174,0.005
12/07/2022,07:01:18,0.312,1.0,0.18,0.006
12/07/2022,07:02:18,0.313,1.0,0.185,0.005
12/07/2022,07:03:18,0.326,1.0,0.19,0.005
12/07/2022,07:04:18,0.330,1.0,0.196,0.006
12/07/2022,07:05:18,0.331,1.0,0.201,0.005
12/07/2022,07:06:18,0.320,1.0,0.207,0.006
12/07/2022,07:07:18,0.308,1.0,0.212,0.005
12/07/2022,07:08:18,0.324,1.0,0.217,0.005
12/07/2022,07:09:18,0.317,1.0,0.222,0.005
12/07/2022,07:10:26,0.319,1.0,0.228,0.006
12/07/2022,07:11:19,0.318,1.0,0.233,0.005
12/07/2022,07:12:18,0.306,1.0,0.238,0.005
12/07/2022,07:13:18,0.303,1.0,0.243,0.005
12/07/2022,07:14:18,0.302,1.0,0.248,0.005
12/07/2022,07:15:18,0.297,1.0,0.253,0.005
12/07/2022,07:16:27,0.289,1.0,0.259,0.006
12/07/2022,07:17:18,0.285,1.0,0.263,0.004
12/07/2022,07:18:19,0.282,1.0,0.267,0.004
12/07/2022,07:19:27,0.270,1.0,0.273,0.006
12/07/2022,07:20:18,0.265,1.0,0.277,0.004
12/07/2022,07:21:18,0.257,1.0,0.281,0.004
12/07/2022,07:22:18,0.251,1.0,0.285,0.004
12/07/2022,07:23:18,0.243,1.0,0.289,0.004
12/07/2022,07:24:18,0.231,1.0,0.293,0.004
12/07/2022,07:25:18,0.220,1.0,0.297,0.004
12/07/2022,07:26:18,0.211,0.0,0.301,0.004
12/07/2022,07:27:19,0.204,0.0,0.304,0.003
12/07/2022,07:28:18,0.196,0.0,0.307,0.003
12/07/2022,07:29:18,0.190,0.0,0.311,0.004
12/07/2022,07:30:18,0.185,0.0,0.314,0.003
12/07/2022,07:31:18,0.184,0.0,0.317,0.003
12/07/2022,07:32:18,0.188,0.0,0.32,0.003
12/07/2022,07:33:18,0.196,0.0,0.323,0.003
12/07/2022,07:34:18,0.206,0.0,0.326,0.003
12/07/2022,07:35:18,0.217,0.0,0.33,0.004
12/07/2022,07:36:26,0.230,1.0,0.334,0.004
12/07/2022,07:37:18,0.240,1.0,0.337,0.003
12/07/2022,07:38:18,0.253,1.0,0.342,0.005
12/07/2022,07:39:26,0.267,1.0,0.347,0.005
12/07/2022,07:40:19,0.280,1.0,0.35,0.003
12/07/2022,07:41:19,0.293,1.0,0.355,0.005
12/07/2022,07:42:26,0.309,1.0,0.361,0.006
12/07/2022,07:43:18,0.323,1.0,0.365,0.004
12/07/2022,07:44:18,0.334,1.0,0.371,0.006
12/07/2022,07:45:26,0.345,1.0,0.377,0.006
12/07/2022,07:47:18,0.361,1.0,0.388,0.011
12/07/2022,07:48:18,0.365,1.0,0.394,0.006
12/07/2022,07:49:18,0.373,1.0,0.401,0.007
12/07/2022,07:50:19,0.377,1.0,0.407,0.006
12/07/2022,07:51:18,0.380,1.0,0.413,0.006
12/07/2022,07:52:19,0.385,1.0,0.42,0.007
12/07/2022,07:53:18,0.390,1.0,0.426,0.006
12/07/2022,07:54:19,0.399,1.0,0.432,0.006
12/07/2022,07:55:18,0.409,1.0,0.439,0.007
12/07/2022,07:56:18,0.420,1.0,0.446,0.007
12/07/2022,07:57:18,0.430,1.0,0.453,0.007
12/07/2022,07:58:18,0.442,1.0,0.46,0.007
12/07/2022,07:59:44,0.418,1.0,0.471,0.011
12/07/2022,08:01:18,0.448,1.0,0.482,0.011
12/07/2022,08:02:18,0.448,1.0,0.49,0.008
12/07/2022,08:03:18,0.443,1.0,0.497,0.007
12/07/2022,08:04:18,0.441,1.0,0.505,0.008
12/07/2022,08:05:27,0.440,1.0,0.513,0.008
12/07/2022,08:06:18,0.441,1.0,0.519,0.006
12/07/2022,08:07:19,0.442,1.0,0.527,0.008
12/07/2022,08:08:18,0.443,1.0,0.534,0.007
12/07/2022,08:09:18,0.445,1.0,0.541,0.007
12/07/2022,08:19:17,0.502,1.0,0.617,0.076
12/07/2022,08:20:19,0.519,1.0,0.626,0.009
12/07/2022,08:21:18,0.535,1.0,0.635,0.009
12/07/2022,08:22:18,0.556,1.0,0.644,0.009
12/07/2022,08:23:18,0.576,1.0,0.653,0.009
12/07/2022,08:24:18,0.595,1.0,0.663,0.01
12/07/2022,08:25:20,0.611,1.0,0.673,0.01
12/07/2022,08:26:18,0.628,1.0,0.683,0.01
12/07/2022,08:27:26,0.651,1.0,0.695,0.012
12/07/2022,08:28:19,0.660,2.0,0.705,0.01
12/07/2022,08:29:19,0.666,2.0,0.716,0.011
12/07/2022,08:30:18,0.667,2.0,0.727,0.011
12/07/2022,08:31:18,0.673,2.0,0.738,0.011
12/07/2022,08:32:18,0.684,2.0,0.75,0.012
12/07/2022,08:33:18,0.696,2.0,0.761,0.011
12/07/2022,08:34:19,0.716,2.0,0.773,0.012
12/07/2022,08:35:35,0.731,2.0,0.788,0.015
12/07/2022,08:37:19,0.747,2.0,0.81,0.022
12/07/2022,08:38:26,0.746,2.0,0.824,0.014
12/07/2022,08:39:18,0.756,2.0,0.835,0.011
12/07/2022,08:40:18,0.766,2.0,0.847,0.012
12/07/2022,08:41:18,0.782,2.0,0.86,0.013
12/07/2022,08:42:18,0.821,2.0,0.874,0.014
12/07/2022,08:43:18,0.764,2.0,0.887,0.013
12/07/2022,08:44:19,0.732,2.0,0.899,0.012
12/07/2022,08:45:18,0.733,2.0,0.912,0.013
12/07/2022,08:46:19,0.621,1.0,0.923,0.011
12/07/2022,08:47:18,0.563,1.0,0.933,0.01
12/07/2022,08:48:18,0.527,1.0,0.942,0.009
12/07/2022,08:49:18,0.506,1.0,0.95,0.008
12/07/2022,08:50:18,0.501,1.0,0.959,0.009
12/07/2022,08:51:18,0.497,1.0,0.967,0.008
12/07/2022,08:52:19,0.500,1.0,0.975,0.008
12/07/2022,08:53:18,0.504,1.0,0.984,0.009
12/07/2022,08:54:18,0.508,1.0,0.992,0.008
12/07/2022,08:55:19,0.506,1.0,1.001,0.009
12/07/2022,08:56:18,0.504,1.0,1.009,0.008
12/07/2022,08:57:18,0.498,1.0,1.017,0.008
12/07/2022,08:58:18,0.490,1.0,1.026,0.009
12/07/2022,08:59:18,0.481,1.0,1.034,0.008
12/07/2022,09:00:18,0.475,1.0,1.042,0.008
12/07/2022,09:01:27,0.471,1.0,1.051,0.009
12/07/2022,09:02:19,0.475,1.0,1.057,0.006
12/07/2022,09:03:18,0.486,1.0,1.065,0.008
12/07/2022,09:04:26,0.503,1.0,1.075,0.01
12/07/2022,09:05:19,0.521,1.0,1.082,0.007
12/07/2022,09:06:18,0.544,1.0,1.091,0.009
12/07/2022,09:07:19,0.570,1.0,1.1,0.009
12/07/2022,09:08:18,0.599,1.0,1.11,0.01
12/07/2022,09:09:18,0.632,1.0,1.12,0.01
12/07/2022,09:10:18,0.666,2.0,1.131,0.011
12/07/2022,09:11:18,0.701,2.0,1.143,0.012
12/07/2022,09:12:27,0.741,2.0,1.156,0.013
12/07/2022,09:13:18,0.769,2.0,1.167,0.011
12/07/2022,09:14:19,0.799,2.0,1.18,0.013
12/07/2022,09:15:18,0.819,2.0,1.194,0.014
12/07/2022,09:16:20,0.854,2.0,1.208,0.014
12/07/2022,09:17:18,0.844,2.0,1.222,0.014
12/07/2022,09:18:18,0.850,2.0,1.236,0.014
12/07/2022,09:19:19,0.852,2.0,1.25,0.014
12/07/2022,09:20:18,0.871,2.0,1.264,0.014
12/07/2022,09:21:18,0.852,2.0,1.279,0.015
12/07/2022,09:22:19,0.844,2.0,1.293,0.014
12/07/2022,09:23:19,0.841,2.0,1.307,0.014
12/07/2022,09:24:18,0.839,2.0,1.321,0.014
12/07/2022,09:25:19,0.850,2.0,1.335,0.014
12/07/2022,09:26:18,0.831,2.0,1.349,0.014
12/07/2022,09:27:18,0.848,2.0,1.363,0.014
12/07/2022,09:28:18,0.807,2.0,1.377,0.014
12/07/2022,09:29:19,0.782,2.0,1.39,0.013
12/07/2022,09:30:18,0.793,2.0,1.403,0.013
12/07/2022,09:31:18,0.815,2.0,1.417,0.014
12/07/2022,09:32:27,0.856,2.0,1.432,0.015
12/07/2022,09:33:18,0.901,2.0,1.445,0.013
12/07/2022,09:34:19,0.964,2.0,1.461,0.016
12/07/2022,09:35:18,1.033,2.0,1.477,0.016
12/07/2022,09:36:18,1.119,3.0,1.495,0.018
12/07/2022,09:37:19,1.334,3.0,1.515,0.02
12/07/2022,09:38:18,1.474,3.0,1.538,0.023
12/07/2022,09:39:18,1.573,4.0,1.562,0.024
12/07/2022,09:40:18,1.530,4.0,1.589,0.027
12/07/2022,09:41:19,1.542,4.0,1.614,0.025
12/07/2022,09:42:18,1.567,4.0,1.64,0.026
12/07/2022,09:43:27,1.343,3.0,1.667,0.027
12/07/2022,09:44:18,1.510,3.0,1.687,0.02
12/07/2022,09:45:19,1.219,3.0,1.711,0.024
12/07/2022,09:46:18,1.202,3.0,1.731,0.02
12/07/2022,09:47:18,1.349,3.0,1.752,0.021
12/07/2022,09:48:27,1.261,3.0,1.778,0.026
12/07/2022,09:49:18,1.316,3.0,1.797,0.019
12/07/2022,09:50:18,1.426,3.0,1.821,0.024
12/07/2022,09:51:18,1.317,3.0,1.844,0.023
12/07/2022,09:52:18,1.310,3.0,1.866,0.022
12/07/2022,09:53:18,1.298,3.0,1.887,0.021
12/07/2022,09:54:18,1.316,3.0,1.909,0.022
12/07/2022,09:55:19,1.357,3.0,1.932,0.023
12/07/2022,09:56:18,1.349,3.0,1.954,0.022
12/07/2022,09:57:18,1.287,3.0,1.976,0.022
12/07/2022,09:58:18,1.184,3.0,1.997,0.021
12/07/2022,09:59:18,1.155,3.0,2.017,0.02
12/07/2022,10:00:18,1.109,3.0,2.035,0.018
12/07/2022,10:01:19,1.098,3.0,2.054,0.019
12/07/2022,10:02:18,1.118,3.0,2.072,0.018
12/07/2022,10:03:19,1.153,3.0,2.091,0.019
12/07/2022,10:04:20,1.306,3.0,2.112,0.021
12/07/2022,10:05:18,1.267,3.0,2.132,0.02
12/07/2022,10:06:18,1.251,3.0,2.153,0.021
12/07/2022,10:07:19,1.262,3.0,2.175,0.022
12/07/2022,10:08:19,1.418,3.0,2.197,0.022
12/07/2022,10:09:18,1.314,3.0,2.22,0.023
12/07/2022,10:10:18,1.412,3.0,2.243,0.023
12/07/2022,10:11:18,1.304,3.0,2.266,0.023
12/07/2022,10:12:18,1.370,3.0,2.288,0.022
12/07/2022,10:13:19,1.252,3.0,2.31,0.022
12/07/2022,10:14:18,1.204,3.0,2.331,0.021
12/07/2022,10:15:18,1.172,3.0,2.35,0.019
12/07/2022,10:16:18,1.114,3.0,2.37,0.02
12/07/2022,10:17:19,1.083,2.0,2.388,0.018
12/07/2022,10:18:18,1.070,2.0,2.406,0.018
12/07/2022,10:19:18,1.061,2.0,2.424,0.018
12/07/2022,10:20:19,1.050,2.0,2.442,0.018
12/07/2022,10:21:18,1.036,2.0,2.459,0.017
12/07/2022,10:22:27,1.018,2.0,2.479,0.02
12/07/2022,10:23:18,1.014,2.0,2.493,0.014
12/07/2022,10:24:18,1.018,2.0,2.51,0.017
12/07/2022,10:25:19,1.033,2.0,2.527,0.017
12/07/2022,10:26:18,1.052,2.0,2.544,0.017
12/07/2022,10:27:27,1.075,2.0,2.564,0.02
12/07/2022,10:28:18,1.088,3.0,2.58,0.016
12/07/2022,10:29:19,1.091,3.0,2.598,0.018
12/07/2022,10:30:18,1.084,2.0,2.616,0.018
12/07/2022,10:31:18,1.071,2.0,2.634,0.018